Wetbulb
76.10 76.55 78.24 76.87 76.91 76.40 76.96 77.94 77.20 76.53 75.81 75.49 75.30 75.22 74.54 74.25 74.51 74.61 74.88 74.75 75.21 76.19 76.78 76.64 76.87 76.63 76.63 76.95 76.90 76.71 76.73 76.38 76.16 75.85 75.67 75.90 75.62 75.54 75.48 75.19 75.16 75.04 75.11
76.76 78.84 77.69 77.06 77.00 76.29 75.12 76.83 77.06 76.04 75.66 75.88 75.19 75.67 75.18 74.83 75.04 75.58 74.34 75.18 75.42 76.50 76.58 76.51 76.83 77.34 77.27 77.13 76.92 76.56 76.04 75.82 75.94 75.78 76.13 75.74 75.37 75.24 75.03 75.34 75.25 75.25 75.24
77.28 77.44 79.31 78.75 77.86 78.83 78.00 77.49 77.11 76.91 76.21 75.58 74.95 74.79 74.43 74.91 74.77 75.71 75.47 75.74 75.53 76.08 76.36 76.47 76.58 76.80 76.50 76.42 76.69 76.21 76.40 75.88 75.48 76.00 75.38 75.61 75.57 75.10 75.10 75.04 74.92 75.62 75.50
77.49 77.82 78.28 77.28 77.74 77.88 76.78 77.06 76.84 77.40 76.09 76.03 76.04 75.32 74.40 74.46 74.90 75.60 76.03 76.15 75.82 75.74 76.43 77.19 77.32 77.23 76.05 76.58 76.49 76.67 76.53 76.61 76.47 76.24 75.90 75.11 74.88 74.92 74.98 75.06 75.04 75.06 75.27
77.15 77.36 77.20 77.84 77.86 78.30 77.68 76.82 77.06 76.79 76.16 76.51 74.72 75.08 75.15 74.95 74.73 74.37 75.01 76.06 75.84 75.90 76.02 76.37 77.08 77.21 75.97 76.10 76.53 76.59 76.98 77.07 76.80 76.45 75.93 75.24 74.85 74.72 74.75 74.82 74.82 75.06 75.03
76.83 77.48 76.84 77.93 76.71 76.84 75.82 77.15 75.64 76.42 75.04 76.12 74.69 74.43 74.88 75.02 74.65 74.35 74.88 75.47 75.55 76.18 75.97 76.62 76.60 75.81 76.24 76.39 77.37 77.11 76.80 77.07 76.99 76.28 76.27 75.83 75.43 75.28 75.16 75.01 74.63 74.10 74.46
76.90 77.25 75.88 76.74 76.38 74.87 75.50 76.78 76.64 72.78 74.12 75.27 76.72 75.44 74.87 75.24 74.03 74.16 74.83 74.94 75.53 76.08 76.05 76.54 76.74 76.34 76.06 76.75 77.17 77.30 76.46 76.34 76.20 76.21 75.53 75.78 75.48 75.33 75.31 74.80 75.03 74.66 73.89
77.44 77.15 76.73 76.36 77.78 77.33 77.51 77.14 77.10 74.78 75.33 75.93 74.43 74.54 72.27 71.76 74.05 74.48 74.28 74.38 75.14 75.91 75.82 76.29 76.44 76.82 76.97 76.44 77.02 76.51 76.93 76.33 75.59 74.96 74.92 74.81 74.61 75.11 75.06 74.53 74.74 74.94 74.79
76.68 77.13 77.12 76.97 77.41 76.98 75.61 77.15 76.16 75.71 74.14 75.50 75.41 73.62 71.37 68.73 72.09 73.99 74.92 75.35 75.13 75.13 75.53 75.69 76.74 77.17 77.54 76.89 76.06 76.23 76.54 75.87 75.30 74.96 75.11 74.52 74.00 74.61 74.61 74.26 74.75 74.69 74.59
76.69 77.20 77.57 77.56 77.96 76.30 77.86 76.14 76.42 76.22 76.85 75.73 75.14 74.21 74.07 73.48 72.81 69.13 73.43 74.45 74.88 74.85 75.74 75.84 76.44 77.17 77.40 76.85 77.56 76.53 76.45 75.62 75.83 75.09 74.94 74.38 74.02 74.38 74.48 74.36 74.53 74.72 74.29
77.37 77.56 77.97 78.04 77.77 75.91 77.35 76.49 76.06 76.21 76.07 74.80 74.32 74.26 74.05 72.94 73.36 70.01 68.34 71.43 73.77 74.64 75.11 75.59 75.97 76.54 76.76 77.01 76.30 76.41 75.38 74.83 75.18 75.37 74.89 73.70 73.70 74.07 74.30 74.30 74.37 74.21 74.24
74.65 77.54 77.59 78.17 78.32 77.83 76.97 76.31 76.94 76.67 76.31 75.99 76.88 72.56 71.99 74.85 73.25 71.54 70.08 71.36 71.71 73.16 74.83 75.31 75.77 75.97 76.26 76.34 77.25 75.96 75.66 74.83 74.46 74.63 74.41 73.47 73.23 73.34 74.26 74.43 74.35 74.73 74.27
73.20 76.20 77.86 77.77 77.31 79.15 76.78 77.18 77.19 76.66 76.08 75.33 75.65 74.15 74.13 73.93 75.24 73.69 72.33 71.33 71.77 73.91 73.95 75.03 75.81 76.33 75.78 76.23 76.69 75.76 74.74 73.42 73.29 73.10 72.84 73.04 72.94 72.25 72.73 73.43 74.11 74.18 75.08
74.43 76.58 77.27 76.99 77.40 77.59 77.82 78.83 78.92 75.75 76.75 75.77 75.93 76.23 74.67 74.72 75.36 74.50 72.75 74.31 71.77 71.27 72.72 73.58 75.58 75.44 76.22 76.60 77.06 75.51 76.34 72.14 72.24 71.51 71.44 71.76 71.21 70.84 70.92 71.35 72.13 73.16 73.96
75.05 76.71 77.53 77.35 77.25 77.54 77.57 77.85 79.10 75.94 76.83 76.52 76.16 76.53 75.78 76.93 77.61 76.17 74.96 74.11 71.67 68.99 69.47 73.72 73.28 76.43 76.25 76.42 77.47 77.78 77.53 71.57 71.56 70.59 70.11 69.80 69.94 69.93 70.35 69.86 69.84 70.16 70.58
76.45 76.52 77.38 77.46 77.63 77.94 77.09 78.80 77.81 77.05 76.93 75.69 75.42 76.56 77.05 75.98 75.80 76.88 74.74 74.89 74.21 72.11 70.76 74.13 75.02 76.78 77.84 76.83 76.63 77.64 77.79 72.06 70.99 70.15 69.35 68.77 69.06 69.45 69.46 69.54 68.79 68.68 69.19
76.62 76.64 77.04 76.63 76.49 76.51 77.17 78.02 78.11 76.72 76.42 76.13 75.99 76.32 75.61 77.24 77.71 75.52 74.90 75.29 74.17 73.78 71.21 72.94 75.11 76.58 76.44 76.35 76.10 76.81 76.63 76.59 74.13 69.33 68.90 68.32 67.92 68.04 67.89 67.91 67.19 67.46 68.14
76.87 77.08 76.97 76.18 76.61 76.40 76.88 76.78 76.10 75.80 76.19 75.42 75.48 75.69 75.66 75.22 76.54 76.22 76.68 77.45 78.15 76.36 74.01 74.65 76.54 78.87 75.98 76.51 75.84 74.56 73.59 75.52 75.86 68.81 67.49 66.93 66.28 66.02 65.64 64.97 64.75 64.37 65.03
76.63 76.67 76.96 76.57 76.71 76.74 76.78 77.07 76.79 76.33 76.35 75.98 75.50 75.39 75.49 75.53 75.41 75.37 76.95 75.17 74.30 74.77 77.92 75.18 73.43 77.29 76.13 74.26 73.32 73.83 73.44 73.89 74.37 68.34 65.66 65.52 64.97 64.45 64.05 63.87 63.44 62.88 62.33
76.36 76.59 76.78 77.01 76.96 76.58 76.63 76.58 76.39 76.58 76.61 75.75 75.72 76.01 76.41 76.25 75.83 75.79 76.09 76.34 77.55 74.94 75.77 75.07 74.71 77.41 76.12 73.47 72.17 71.03 69.55 71.40 72.07 72.88 69.00 67.74 65.85 64.45 63.88 63.00 62.80 62.60 61.08
76.48 76.90 77.00 76.97 77.19 76.69 75.89 76.30 76.18 75.89 76.14 76.29 76.81 77.00 77.14 76.23 73.22 73.42 76.43 76.96 77.86 75.79 75.47 73.55 72.23 76.71 74.40 72.43 70.50 71.86 70.60 71.82 71.43 71.98 70.91 71.09 69.45 69.08 68.53 63.51 66.14 63.73 62.15
76.59 76.73 76.79 76.64 76.32 75.50 69.97 68.61 72.56 76.31 76.59 76.82 76.37 76.90 77.37 74.94 73.98 70.01 69.49 69.47 72.35 75.83 75.46 72.63 71.92 71.92 76.69 75.41 76.06 73.00 71.57 70.32 67.17 72.59 71.36 72.08 72.05 69.58 71.36 72.10 68.05 66.22 62.26
76.99 76.68 76.82 76.87 76.45 77.03 68.02 67.98 68.88 75.13 76.16 76.57 76.79 76.66 76.26 75.69 74.18 76.22 70.88 68.05 68.19 67.49 69.18 75.37 73.76 73.99 74.75 76.26 77.96 74.95 74.19 72.15 70.74 72.88 71.45 70.22 71.56 70.65 71.03 69.63 63.76 62.83 61.54
76.79 76.72 76.93 77.05 77.13 77.07 64.03 64.73 67.36 75.14 76.26 76.71 76.70 76.56 76.33 76.33 76.15 75.70 76.03 75.65 75.62 75.34 74.67 74.08 74.60 75.07 75.83 77.91 78.10 77.41 77.30 75.31 73.99 73.66 72.69 69.14 72.45 70.91 71.58 71.36 64.18 62.23 60.55
77.03 77.18 77.66 77.69 77.45 74.74 59.94 59.82 64.99 74.80 74.67 74.82 75.06 75.09 74.79 74.52 69.23 65.18 72.24 72.58 73.62 74.14 71.35 67.14 67.52 67.67 66.70 65.67 69.65 77.46 74.00 72.52 70.43 70.28 70.72 70.17 70.39 70.48 71.71 70.90 71.58 62.11 59.84
77.18 77.05 77.52 77.96 71.21 71.39 57.47 57.10 61.59 69.89 69.81 69.11 70.08 70.27 64.42 66.63 59.17 57.61 66.41 68.52 68.57 70.29 72.11 73.18 74.35 71.47 69.12 73.04 66.43 74.08 74.80 70.95 70.03 71.70 70.53 67.84 69.77 69.31 67.83 69.08 69.41 70.04 64.93
MSLP
1017.76 1017.97 1018.28 1017.89 1018.19 1018.13 1018.05 1018.43 1018.51 1018.58 1018.32 1018.39 1018.51 1018.91 1018.61 1018.67 1018.55 1018.65 1018.83 1020.34 1020.69 1020.85 1020.95 1021.12 1021.39 1021.55 1021.75 1021.85 1021.98 1022.18 1022.34 1022.54 1022.70 1022.73 1022.91 1022.91 1022.99 1023.01 1023.03 1023.08 1023.07 1023.17 1023.31
1017.65 1017.88 1017.81 1017.24 1017.60 1018.24 1018.45 1018.08 1018.30 1018.10 1018.02 1017.99 1018.22 1018.64 1018.72 1018.76 1018.99 1019.01 1018.82 1019.72 1020.56 1020.88 1020.99 1021.03 1021.18 1021.37 1021.53 1021.66 1021.75 1021.86 1021.99 1022.18 1022.35 1022.58 1022.63 1022.79 1022.80 1022.88 1022.91 1022.89 1022.92 1023.02 1023.16
1017.49 1017.80 1017.47 1017.80 1017.11 1017.47 1017.84 1017.82 1017.93 1018.06 1018.08 1017.86 1018.11 1018.22 1018.34 1018.69 1018.62 1018.98 1018.94 1018.61 1019.72 1020.55 1020.80 1021.06 1021.15 1021.23 1021.30 1021.42 1021.52 1021.66 1021.74 1021.89 1022.07 1022.26 1022.50 1022.56 1022.57 1022.66 1022.68 1022.68 1022.73 1022.79 1022.90
1017.74 1017.54 1017.46 1017.19 1017.22 1017.47 1017.47 1017.14 1017.35 1018.04 1018.26 1017.99 1017.75 1017.79 1017.77 1017.92 1018.33 1018.57 1018.65 1018.61 1018.56 1018.47 1020.08 1020.48 1020.72 1020.85 1021.00 1021.08 1021.20 1021.31 1021.48 1021.63 1021.78 1021.93 1022.15 1022.28 1022.35 1022.37 1022.42 1022.48 1022.50 1022.57 1022.66
1017.47 1017.45 1016.94 1017.07 1017.67 1017.26 1017.35 1017.23 1017.32 1017.92 1017.52 1018.01 1017.40 1017.58 1017.53 1017.49 1017.52 1017.62 1017.93 1018.50 1018.34 1018.69 1018.32 1019.63 1020.14 1020.44 1020.62 1020.66 1020.77 1020.98 1021.09 1021.25 1021.45 1021.61 1021.77 1021.93 1022.05 1022.10 1022.12 1022.21 1022.28 1022.34 1022.38
1017.24 1017.37 1016.79 1017.28 1017.54 1017.39 1017.49 1017.45 1017.79 1017.50 1017.48 1017.40 1016.99 1017.50 1017.12 1017.15 1017.02 1017.13 1017.36 1017.90 1017.97 1018.22 1018.17 1018.43 1019.01 1019.27 1019.97 1020.22 1020.31 1020.49 1020.70 1020.87 1021.12 1021.30 1021.39 1021.48 1021.61 1021.74 1021.77 1021.85 1022.00 1022.08 1022.12
1017.05 1017.28 1016.80 1017.18 1017.38 1017.46 1017.50 1017.68 1017.60 1018.27 1017.77 1017.50 1017.55 1017.79 1017.92 1017.12 1016.96 1016.86 1016.96 1017.15 1017.20 1017.80 1017.88 1018.11 1018.36 1018.14 1018.60 1019.47 1019.90 1020.13 1020.32 1020.46 1020.69 1020.82 1020.96 1021.10 1021.14 1021.26 1021.35 1021.45 1021.61 1021.69 1021.81
1016.74 1017.02 1017.04 1016.84 1017.07 1016.97 1017.57 1017.65 1017.70 1017.45 1017.36 1017.28 1017.63 1017.56 1017.05 1016.77 1016.39 1016.54 1016.67 1016.80 1017.03 1017.05 1017.23 1017.61 1017.84 1018.17 1018.23 1018.12 1018.41 1019.58 1019.90 1020.03 1020.23 1020.40 1020.55 1020.67 1020.79 1020.89 1020.98 1021.05 1021.16 1021.27 1021.41
1016.55 1016.89 1016.93 1016.92 1017.05 1017.13 1016.61 1017.30 1017.37 1017.47 1017.07 1016.95 1017.28 1016.76 1016.34 1015.54 1015.74 1015.58 1016.21 1016.44 1016.61 1016.80 1016.55 1016.79 1017.32 1017.75 1018.04 1017.94 1018.34 1018.86 1019.32 1019.63 1019.76 1019.92 1020.10 1020.32 1020.51 1020.57 1020.57 1020.66 1020.73 1020.80 1020.96
1016.23 1016.43 1016.69 1016.83 1016.87 1016.41 1016.88 1016.92 1016.94 1017.18 1017.38 1017.20 1016.76 1016.89 1016.81 1016.59 1016.03 1015.24 1015.58 1015.82 1016.35 1016.58 1016.56 1016.51 1016.56 1017.16 1017.61 1017.55 1017.55 1017.98 1018.74 1019.19 1019.39 1019.56 1019.72 1019.98 1020.06 1020.17 1020.19 1020.22 1020.37 1020.43 1020.55
1016.09 1016.12 1016.33 1016.51 1016.65 1016.67 1016.84 1017.08 1017.10 1017.27 1016.94 1016.93 1016.32 1016.57 1016.84 1016.49 1016.56 1016.13 1015.05 1015.23 1015.68 1015.98 1016.08 1016.35 1016.10 1016.23 1016.69 1017.06 1016.88 1017.25 1018.11 1018.70 1019.00 1019.17 1019.36 1019.57 1019.73 1019.91 1019.89 1019.79 1019.86 1020.05 1020.23
1016.05 1016.06 1016.03 1016.24 1016.38 1016.47 1016.78 1016.71 1016.90 1017.01 1017.04 1017.08 1016.81 1017.39 1016.84 1016.11 1016.14 1015.79 1015.45 1015.39 1015.22 1015.60 1015.55 1015.79 1016.01 1015.86 1016.05 1016.23 1016.68 1017.25 1017.73 1018.19 1018.54 1018.74 1019.01 1019.28 1019.51 1019.63 1019.63 1019.50 1019.48 1019.57 1019.72
1015.71 1015.23 1015.87 1016.05 1016.13 1016.65 1016.65 1016.46 1016.81 1016.79 1016.79 1017.00 1016.92 1016.53 1016.16 1016.02 1015.86 1015.97 1015.98 1015.46 1015.32 1015.11 1015.29 1015.26 1015.48 1015.66 1015.65 1015.86 1015.87 1016.57 1017.26 1017.82 1018.15 1018.40 1018.74 1019.10 1019.31 1019.50 1019.56 1019.49 1019.38 1019.23 1019.11
1014.32 1014.71 1015.36 1015.53 1015.83 1016.09 1016.25 1016.36 1016.74 1016.37 1016.40 1016.55 1016.59 1016.64 1015.86 1015.65 1015.77 1015.88 1015.77 1015.57 1015.03 1014.38 1014.80 1015.09 1015.00 1015.20 1015.36 1015.45 1015.68 1016.35 1016.44 1017.24 1017.71 1018.13 1018.53 1018.91 1019.20 1019.29 1019.47 1019.46 1019.40 1019.30 1019.13
1013.93 1014.72 1015.10 1015.34 1015.45 1015.65 1015.82 1016.04 1016.21 1016.15 1016.16 1016.35 1016.18 1016.34 1016.33 1015.99 1016.16 1015.86 1015.83 1015.62 1015.53 1014.59 1013.78 1014.32 1014.59 1015.27 1015.11 1015.45 1015.73 1015.87 1015.98 1016.66 1017.34 1018.00 1018.46 1018.85 1019.08 1019.11 1019.24 1019.35 1019.38 1019.38 1019.31
1014.20 1014.48 1014.78 1015.18 1015.36 1015.45 1015.51 1015.71 1015.67 1015.67 1015.89 1015.81 1015.55 1016.01 1016.27 1016.30 1016.41 1016.32 1015.97 1015.54 1015.25 1015.16 1014.84 1014.07 1014.34 1015.14 1015.56 1015.73 1015.87 1016.09 1015.85 1016.76 1017.29 1017.77 1018.17 1018.49 1018.89 1019.00 1019.01 1019.12 1019.28 1019.31 1019.27
1014.05 1014.27 1014.65 1014.92 1014.89 1015.05 1015.24 1015.40 1015.42 1015.41 1015.50 1015.70 1015.62 1015.73 1015.80 1016.02 1015.98 1015.84 1015.61 1015.00 1014.86 1014.87 1014.60 1014.28 1014.53 1015.12 1015.77 1015.89 1016.00 1016.07 1016.21 1016.35 1016.85 1017.65 1017.92 1018.35 1018.48 1018.75 1018.86 1018.89 1019.09 1019.10 1019.08
1013.88 1014.10 1014.29 1014.47 1014.57 1014.78 1014.96 1015.16 1015.06 1014.79 1015.14 1015.16 1015.23 1015.40 1015.55 1015.52 1015.85 1015.77 1015.67 1015.24 1015.14 1014.92 1014.75 1014.47 1014.75 1014.85 1015.34 1015.57 1015.84 1016.22 1016.40 1015.94 1015.73 1017.28 1017.70 1017.95 1018.20 1018.42 1018.59 1018.61 1018.71 1018.86 1018.88
1013.59 1013.77 1013.97 1014.14 1014.27 1014.54 1014.65 1014.75 1014.82 1014.67 1014.70 1014.65 1014.70 1014.79 1014.78 1014.77 1014.77 1014.65 1014.91 1014.95 1014.72 1014.64 1014.96 1014.70 1014.05 1014.49 1014.44 1015.60 1015.87 1016.09 1016.28 1016.29 1015.93 1016.84 1017.60 1017.67 1017.82 1018.12 1018.20 1018.15 1018.20 1018.32 1018.49
1013.29 1013.51 1013.74 1013.91 1014.06 1014.14 1014.25 1014.30 1014.27 1014.38 1014.33 1014.14 1014.21 1014.23 1014.28 1014.33 1014.33 1014.38 1014.48 1014.60 1014.60 1014.41 1014.20 1014.21 1014.34 1013.73 1014.29 1015.10 1015.64 1015.58 1015.90 1016.05 1015.82 1015.59 1016.58 1016.82 1017.16 1017.42 1017.54 1017.63 1017.69 1017.68 1017.81
1012.86 1013.14 1013.40 1013.57 1013.66 1013.69 1013.65 1013.77 1013.81 1013.75 1013.84 1013.77 1013.67 1013.66 1013.60 1013.66 1013.82 1013.93 1014.11 1013.67 1013.89 1014.08 1014.06 1013.80 1013.50 1013.21 1013.52 1014.27 1014.81 1014.82 1015.02 1014.84 1015.21 1015.44 1015.64 1015.49 1015.81 1016.05 1016.16 1016.88 1016.60 1016.89 1017.00
1012.40 1012.60 1012.81 1013.00 1013.19 1013.21 1013.14 1013.58 1013.89 1013.52 1013.48 1013.40 1013.20 1013.07 1013.04 1013.12 1013.31 1013.50 1013.51 1013.60 1013.66 1013.59 1013.54 1013.22 1012.80 1012.44 1012.59 1013.13 1013.50 1013.72 1014.06 1014.10 1014.46 1014.31 1014.71 1013.88 1014.19 1014.71 1014.51 1014.52 1014.69 1015.51 1016.28
1011.94 1012.26 1012.55 1012.77 1012.92 1013.06 1013.25 1013.58 1013.96 1013.98 1013.40 1013.00 1013.01 1012.93 1012.82 1012.54 1012.73 1012.71 1012.71 1012.83 1012.85 1012.76 1012.86 1012.71 1012.47 1012.33 1012.31 1012.52 1012.56 1012.88 1013.08 1013.36 1013.18 1012.96 1013.85 1013.22 1013.72 1013.60 1014.02 1014.25 1014.64 1014.87 1015.34
1011.35 1011.70 1011.98 1012.24 1012.48 1012.73 1013.73 1013.94 1014.05 1013.82 1013.38 1013.13 1012.90 1012.71 1012.61 1012.53 1012.58 1012.68 1012.54 1012.10 1011.72 1011.50 1011.59 1011.71 1011.69 1011.42 1011.51 1011.79 1012.15 1012.37 1012.40 1012.60 1012.45 1012.47 1013.19 1012.62 1012.27 1012.78 1013.36 1013.51 1013.80 1014.13 1014.59
1010.88 1011.11 1011.38 1011.58 1011.91 1012.92 1013.78 1013.96 1013.79 1012.91 1012.63 1012.76 1012.77 1012.78 1012.82 1012.67 1012.62 1012.98 1012.80 1012.15 1011.46 1010.85 1010.03 1010.32 1010.46 1010.36 1010.73 1011.27 1011.73 1011.94 1011.95 1012.20 1011.87 1011.93 1012.79 1012.66 1012.24 1012.42 1012.28 1012.66 1012.56 1013.47 1013.99
1010.22 1010.61 1010.99 1011.16 1011.73 1012.71 1013.45 1013.72 1013.62 1012.94 1012.55 1012.34 1012.53 1012.48 1012.66 1013.07 1013.58 1013.83 1013.73 1012.98 1012.17 1011.28 1010.62 1010.26 1010.06 1010.45 1010.33 1010.04 1010.76 1011.15 1010.86 1011.10 1011.18 1011.14 1011.97 1012.84 1012.09 1012.54 1011.86 1011.76 1011.97 1012.20 1013.23
Wind_Speed
5 4 4 4 3 3 4 4 4 3 4 5 5 6 6 5 4 3 3 11 9 11 11 13 13 13 12 12 12 11 10 9 9 9 9 10 8 7 7 7 7 7 7
4 4 5 4 4 4 4 4 4 4 5 4 6 6 6 6 5 3 5 9 10 10 9 9 10 11 11 12 12 11 10 10 9 9 9 8 7 7 8 8 9 9 8
4 5 2 3 3 2 4 5 5 5 5 4 5 5 6 6 6 6 6 5 12 13 12 11 10 9 11 11 11 10 10 9 10 9 8 8 8 8 9 10 10 10 9
5 4 2 3 2 3 3 3 3 2 4 3 2 5 6 6 8 7 7 5 5 9 13 14 12 11 11 11 10 11 10 10 10 9 9 9 9 10 10 10 10 11 10
6 6 3 2 3 2 1 3 1 4 4 5 5 5 5 6 8 9 8 7 6 5 5 17 13 10 11 11 11 11 11 10 10 10 10 9 9 9 9 10 10 10 11
6 5 3 1 4 2 2 2 3 3 5 3 4 2 4 6 7 7 7 7 8 7 7 5 9 11 14 12 11 10 10 10 9 9 9 9 9 9 10 10 10 11 11
7 5 5 3 3 4 3 3 3 2 5 4 3 3 2 7 9 8 7 7 8 8 8 6 6 6 10 14 11 10 10 10 9 8 7 8 8 8 9 10 11 11 11
6 6 5 4 2 2 3 4 3 3 5 3 2 3 4 5 7 9 8 8 8 8 8 9 9 7 7 6 11 14 12 11 9 8 7 7 7 8 9 10 10 12 12
8 7 6 6 3 5 3 2 3 4 4 3 5 4 3 2 1 8 9 8 9 8 8 7 7 8 8 9 6 11 13 10 10 9 8 7 7 8 8 9 10 12 12
9 8 8 6 6 5 3 3 4 6 2 4 3 4 5 6 3 3 5 7 8 9 9 7 7 9 9 8 9 4 11 11 10 9 9 8 8 7 8 8 10 11 11
7 9 8 7 6 7 3 4 4 4 5 6 3 2 3 5 5 6 4 5 5 8 8 8 8 7 10 9 8 8 12 10 10 9 9 7 6 7 8 8 8 11 11
6 9 9 7 6 5 6 6 5 5 5 4 6 1 7 1 4 5 6 6 4 4 7 8 8 7 7 8 9 7 9 10 11 10 9 8 6 5 8 9 8 11 11
7 9 8 7 6 7 7 7 5 6 5 4 5 6 6 4 3 3 4 6 4 3 5 7 7 8 8 8 8 10 14 11 11 11 10 8 7 4 4 4 6 9 13
9 6 7 7 7 7 7 6 5 6 5 5 7 6 6 5 4 4 5 3 8 5 4 8 5 7 7 8 1 7 8 13 11 10 9 8 7 6 4 4 3 3 5
5 6 7 8 8 7 8 7 5 8 5 5 5 5 6 5 5 6 5 5 5 8 4 6 3 4 5 5 5 7 8 13 11 9 9 8 8 7 6 5 3 3 3
8 6 9 8 8 7 8 8 6 7 6 6 6 5 5 5 5 3 8 7 6 6 6 3 2 2 1 3 2 6 3 8 11 12 11 11 9 9 8 7 5 4 4
10 9 7 7 8 8 6 6 5 3 4 5 5 5 7 5 6 6 7 7 7 7 8 7 4 4 4 5 4 5 4 6 9 10 11 11 11 9 9 7 6 5 5
11 9 9 8 7 7 6 6 6 4 5 7 7 6 8 7 8 8 7 8 6 8 8 9 7 4 7 5 5 7 5 8 6 12 10 10 10 10 10 9 8 7 6
11 10 10 10 9 8 7 7 7 8 8 8 8 9 9 9 9 8 6 8 9 10 6 9 9 5 4 3 4 6 7 8 6 12 10 9 10 11 11 10 10 9 9
11 11 10 9 10 9 9 9 9 10 10 10 10 10 10 10 11 10 9 10 9 9 9 8 9 6 7 5 6 6 6 7 8 9 11 10 13 16 14 12 11 11 11
12 11 11 11 11 10 10 11 12 11 11 11 11 11 12 12 9 9 8 10 8 9 9 8 11 6 8 6 6 6 9 6 9 9 8 8 10 10 11 14 13 17 14
12 13 13 13 12 10 8 8 9 9 11 11 11 11 12 10 12 13 14 14 13 11 12 10 11 12 7 8 7 9 7 7 5 10 11 11 7 9 10 9 14 11 17
12 13 12 11 11 11 3 6 5 10 11 11 11 11 11 10 10 12 12 15 14 15 17 14 14 13 12 11 8 10 8 10 10 3 10 9 10 11 7 5 10 14 14
12 12 11 11 11 6 4 3 2 8 10 11 11 11 12 12 11 8 12 14 14 14 15 13 16 16 15 12 10 10 11 11 10 7 8 8 6 8 7 8 15 16 14
11 12 11 11 10 5 5 2 4 6 7 8 9 10 12 13 10 7 11 14 16 15 12 14 13 11 9 5 8 7 8 8 8 9 8 8 5 8 7 9 9 15 14
11 9 10 9 3 7 6 2 3 6 6 7 8 10 10 12 12 11 11 13 15 15 14 15 12 12 13 14 11 13 10 9 9 8 9 8 9 6 6 6 8 8 8
Wind_Direction
228 275 265 260 234 252 213 189 215 218 210 222 199 208 235 185 185 182 161 163 196 204 208 199 199 197 199 202 207 207 210 217 223 228 230 232 229 239 242 238 247 247 242
252 245 249 211 178 204 248 265 204 229 222 231 205 205 214 200 188 229 192 158 185 204 207 196 199 201 204 209 212 210 213 219 224 228 236 240 244 243 242 238 237 244 238
220 286 235 301 231 254 256 222 209 218 250 208 214 184 201 195 210 200 217 199 163 193 206 210 212 210 212 214 217 217 218 224 224 229 238 241 237 248 249 249 245 241 237
249 239 164 266 349 229 280 248 209 157 227 228 207 221 198 198 199 195 219 217 216 181 189 201 206 209 214 219 221 222 225 217 222 225 228 235 243 244 241 243 240 238 234
222 263 266 34 247 225 275 312 241 239 181 218 205 211 220 218 199 198 207 213 220 235 221 173 193 206 218 220 218 221 226 221 218 218 225 232 237 241 243 239 237 235 233
221 237 249 307 253 220 255 288 319 309 293 287 252 203 243 203 206 210 206 214 214 223 234 210 185 200 203 219 216 216 225 224 216 218 223 229 231 232 235 234 231 235 232
205 218 253 201 231 248 271 256 233 207 276 245 299 219 219 240 207 213 211 219 214 214 224 225 235 252 185 195 211 216 223 228 230 230 228 232 237 238 236 232 230 227 230
208 211 243 231 222 236 236 244 237 248 247 227 236 238 206 209 214 219 218 223 219 219 221 221 241 239 266 243 181 199 212 221 228 231 233 232 233 241 238 235 231 225 223
220 226 225 250 229 265 248 238 240 265 305 251 270 278 284 324 183 182 213 226 217 222 230 219 223 226 232 248 155 183 196 209 224 232 239 233 235 248 245 242 235 228 222
217 218 210 221 230 258 324 240 228 298 287 293 187 232 295 344 297 204 201 207 205 224 230 248 223 217 227 235 218 299 168 201 213 231 239 228 241 248 249 246 240 225 222
227 204 200 211 227 234 222 277 272 255 265 279 275 223 235 242 223 285 282 172 201 219 224 222 245 220 212 230 241 210 184 201 209 217 218 234 244 249 259 253 245 228 226
216 215 204 219 231 252 241 235 258 259 276 298 318 136 272 272 270 239 248 263 282 229 216 209 232 233 232 226 224 97 171 194 211 208 200 216 228 246 277 247 236 227 222
223 193 209 216 230 209 242 249 246 240 240 250 250 247 237 267 297 269 301 286 252 233 230 228 208 232 228 236 245 190 176 198 212 198 194 202 209 225 260 272 265 253 223
201 171 195 230 235 251 234 231 241 255 226 240 242 239 268 237 249 257 273 305 294 214 225 258 190 223 231 236 67 149 224 185 197 184 181 190 206 206 235 251 283 298 235
204 200 212 219 222 231 239 239 224 228 236 234 234 243 256 324 320 306 256 262 289 296 290 144 254 194 247 219 243 240 236 161 171 168 178 193 207 203 213 218 236 258 273
215 208 214 212 220 225 244 235 225 192 224 239 231 204 235 204 234 225 274 247 252 260 268 301 228 138 242 240 200 250 244 147 156 176 181 188 203 207 205 204 219 235 255
217 220 222 226 228 227 231 229 242 246 243 239 265 242 246 245 257 218 261 250 244 243 257 262 218 192 219 232 243 228 221 232 167 182 184 197 194 201 204 196 210 227 242
220 224 225 232 230 228 224 231 243 277 229 238 240 252 246 247 237 249 234 268 287 292 266 261 261 228 223 215 225 223 217 230 233 157 190 195 199 199 207 207 212 228 241
222 221 221 226 227 230 223 226 237 243 249 253 259 255 260 253 250 262 251 243 240 231 234 265 269 226 247 214 225 226 219 244 226 142 196 202 205 214 216 214 216 219 228
218 222 225 229 231 233 236 246 241 241 250 255 253 250 249 248 249 253 249 249 260 268 251 252 256 244 230 172 232 225 217 226 230 219 204 227 204 212 217 217 221 222 222
215 220 224 230 234 237 240 232 241 244 247 251 249 247 244 247 255 258 261 248 253 243 260 262 268 234 232 200 222 231 245 225 226 237 231 234 211 214 214 219 235 221 218
215 218 226 232 240 247 236 218 260 261 254 255 259 255 255 237 233 231 234 243 258 256 255 257 255 276 288 250 234 243 230 219 240 200 231 235 226 225 227 217 197 201 202
215 220 227 233 239 242 181 192 194 257 268 262 262 268 272 270 257 259 233 233 242 233 237 255 254 256 258 253 254 237 221 229 238 163 207 243 207 229 237 240 169 178 185
209 213 219 222 230 231 57 38 287 255 258 268 272 272 271 272 269 281 275 269 254 242 224 226 235 251 254 255 246 240 250 240 248 244 194 252 208 229 234 241 191 190 193
204 208 214 216 224 146 87 69 274 255 267 284 288 290 290 284 296 25 286 267 266 263 255 228 247 252 262 265 258 239 232 232 236 236 193 243 202 239 234 232 225 191 196
204 214 214 217 202 155 145 97 325 279 274 283 288 267 233 253 15 7 319 287 277 274 273 272 248 238 241 244 216 239 229 219 229 239 189 210 226 215 223 219 236 204 211